Location: Melbourne
(37.8170°S, 144.9670°E)
Time: 02:45:53
(UTC+11:00)

deb Explorer IX - All Passes

Search period start: 20 December 2014 00:00
Search period end: 30 December 2014 00:00
Orbit: 558 x 1186 km, 38.8° (Epoch: 18 December)

Date Brightness Start Highest point End Pass type
(mag) Time Alt. Az. Time Alt. Az. Time Alt. Az.
20 Dec - 00:00:00 31° NE 23:59:45 32° NE 00:03:45 10° NE night (unlit)
20 Dec - 01:38:46 10° W 01:44:20 24° NW 01:50:12 10° NNE visible
20 Dec - 18:19:19 10° NW 18:23:56 44° NNE 18:29:24 10° E daylight
20 Dec - 20:06:29 10° W 20:11:53 88° S 20:18:25 10° E daylight
20 Dec - 21:54:22 10° W 22:00:24 88° S 22:07:34 10° E visible
20 Dec - 23:42:24 10° W 23:48:49 53° NNW 23:56:06 10° NE visible
21 Dec - 01:31:50 10° W 01:36:46 20° NW 01:41:57 10° N visible
21 Dec - 16:27:30 10° NNE 16:29:25 12° NE 16:31:25 10° ENE daylight
21 Dec - 18:11:50 10° NW 18:16:28 51° NNE 18:21:58 10° E daylight
21 Dec - 19:59:11 10° W 20:04:29 84° S 20:10:55 10° E daylight
21 Dec - 21:47:02 10° W 21:52:58 88° NNW 22:00:02 10° ENE visible
21 Dec - 23:35:05 10° W 23:41:17 46° NNW 23:48:19 10° NE visible
22 Dec - 01:25:03 10° WNW 01:29:07 16° NW 01:33:23 10° N visible
22 Dec - 16:19:09 10° N 16:21:47 15° NE 16:24:37 10° ENE daylight
22 Dec - 18:04:21 10° NW 18:08:58 58° NNE 18:14:27 10° E daylight
22 Dec - 19:51:49 10° W 19:57:02 82° S 20:03:21 10° E daylight
22 Dec - 21:39:37 10° W 21:45:27 83° NNW 21:52:24 10° ENE visible
22 Dec - 23:27:43 10° W 23:33:40 40° NNW 23:40:25 10° NE visible
23 Dec - 01:18:38 10° WNW 01:21:25 13° NW 01:24:16 10° NNW visible
23 Dec - 16:11:02 10° N 16:14:07 19° NE 16:17:28 10° E daylight
23 Dec - 17:56:49 10° WNW 18:01:25 66° NNE 18:06:51 10° E daylight
23 Dec - 19:44:23 10° W 19:49:31 80° S 19:55:43 10° E daylight
23 Dec - 21:32:09 10° W 21:37:52 76° NNW 21:44:41 10° ENE visible
23 Dec - 23:20:21 10° W 23:25:59 34° NNW 23:32:21 10° NNE visible
24 Dec - 16:03:00 10° NNW 16:06:25 23° NE 16:10:08 10° E daylight
24 Dec - 17:49:15 10° WNW 17:53:49 74° NNE 17:59:11 10° E daylight
24 Dec - 19:36:53 10° W 19:41:56 80° S 19:48:01 10° E daylight
24 Dec - 21:24:38 10° W 21:30:12 69° NNW 21:36:53 10° ENE visible
24 Dec - 23:12:58 10° W 23:18:13 29° NNW 23:24:08 10° NNE visible
25 Dec - 15:55:02 10° NNW 15:58:40 27° NNE 16:02:38 10° E daylight
25 Dec - 17:41:39 10° WNW 17:46:10 82° NNE 17:51:27 10° E daylight
25 Dec - 19:29:19 10° W 19:34:18 81° S 19:40:16 10° E daylight
25 Dec - 21:17:02 10° W 21:22:28 61° NNW 21:28:58 10° ENE visible
25 Dec - 23:05:36 10° W 23:10:23 24° NNW 23:15:43 10° NNE visible
26 Dec - 15:47:04 10° NW 15:50:52 33° NNE 15:55:00 10° E daylight
26 Dec - 17:34:00 10° WNW 17:38:27 88° NNE 17:43:39 10° E daylight
26 Dec - 19:21:41 10° W 19:26:35 84° S 19:32:26 10° E daylight
26 Dec - 21:09:24 10° W 21:14:40 54° NNW 21:20:56 10° NE visible
26 Dec - 22:58:19 10° WNW 23:02:29 19° NW 23:07:05 10° N visible
27 Dec - 15:39:06 10° NW 15:43:02 39° NNE 15:47:17 10° E daylight
27 Dec - 17:26:17 10° W 17:30:42 86° S 17:35:47 10° E daylight
27 Dec - 19:13:58 10° W 19:18:47 88° S 19:24:32 10° E daylight
27 Dec - 21:01:43 10° W 21:06:47 46° NNW 21:12:48 10° NE visible
27 Dec - 22:51:10 10° WNW 22:54:31 15° NW 22:58:08 10° N visible
28 Dec - 13:47:12 10° NNE 13:48:02 11° NE 13:48:53 10° NE daylight
28 Dec - 15:31:08 10° NW 15:35:09 46° NNE 15:39:27 10° E daylight
28 Dec - 17:18:30 10° W 17:22:52 82° S 17:27:52 10° E daylight
28 Dec - 19:06:11 10° W 19:10:56 87° NNW 19:16:33 10° ENE daylight
28 Dec - 20:53:59 10° W 20:58:51 39° NNW 21:04:32 10° NE daylight
28 Dec - 22:44:29 10° WNW 22:46:29 12° NW 22:48:34 10° NNW visible
29 Dec - 13:37:52 10° N 13:40:00 14° NE 13:42:09 10° ENE daylight
29 Dec - 15:23:07 10° WNW 15:27:12 54° NNE 15:31:33 10° E daylight
29 Dec - 17:10:39 10° W 17:14:59 79° S 17:19:54 10° E daylight
29 Dec - 18:58:20 10° W 19:03:00 80° NNW 19:08:29 10° ENE daylight
29 Dec - 20:46:14 10° W 20:50:49 32° NNW 20:56:08 10° NNE daylight
